Location: Newark
(51.2656°N, 3.9089°E)
Time: 08:43:04
(UTC+00:00)

ISS - Visible Passes

Search period start: 23 October 2019 00:00
Search period end: 02 November 2019 00:00
Orbit: 411 x 421 km, 51.6° (Epoch: 23 October)

Date Brightness Start Highest point End Pass type
(mag) Time Alt. Az. Time Alt. Az. Time Alt. Az.
23 Oct -0.4 05:38:53 10° SSE 05:39:51 11° SE 05:40:47 10° ESE visible
25 Oct -1.3 05:36:23 10° SSW 05:39:04 22° SE 05:41:45 10° E visible
26 Oct -0.9 04:48:36 10° S 04:50:40 15° SE 04:52:45 10° ESE visible
27 Oct -0.7 04:01:55 10° SE 04:02:20 10° SE 04:02:46 10° SE visible
27 Oct -2.6 05:35:11 10° SW 05:38:23 41° SSE 05:41:35 10° E visible
28 Oct -2.1 04:47:42 15° SSW 04:49:54 30° SSE 04:52:53 10° E visible
29 Oct -1.6 04:01:27 21° SE 04:01:27 21° SE 04:04:04 10° E visible
29 Oct -3.5 05:34:26 10° WSW 05:37:48 69° SSE 05:41:09 10° E visible
30 Oct -3.2 04:47:58 32° SW 04:49:13 53° SSE 04:52:31 10° E visible
31 Oct -2.1 04:01:29 33° ESE 04:01:29 33° ESE 04:03:51 10° E visible
31 Oct -3.8 05:34:23 14° W 05:37:16 87° NNW 05:40:39 10° E visible
01 Nov -0.2 03:14:56 11° E 03:14:56 11° E 03:15:06 10° E visible
01 Nov -3.8 04:47:50 50° WSW 04:48:37 82° SSE 04:52:00 10° E visible
